Date String (YYYY-MM-DD hh:mm:ss) UTC,Instrument flags,Ambient pressure (hPa),Sample flow (lpm),Bypass flow (lpm),Sample temperature (°C),Ambient temperature (°C),ASC tube jacket temperature (°C),LED temperature (°C),Box temperature (°C),Sample RH (%),Span deviation,Mass concentration (μg/m³),Mass concentration (μg/m³),Mass concentration (μg/m³)
DateTimeUTC,F1_M11,P_M11,Q1_M11,Q2_M11,T1_M11,T2_M11,T3_M11,T4_M11,T5_M11,U1_M11,ZSPAN_M11,X0_M11,X2_M11,X1_M11
2021-10-24 07:00:00,,0818.0,5.00,0.00,28.8,27.9,00.0,37.9,30.6,12.1,0000.0,0006.20,0002.20,0001.32
2021-10-24 07:01:00,,0817.9,4.99,0.00,28.8,27.9,00.0,37.9,30.5,12.2,0000.0,0006.58,0002.19,0001.34
2021-10-24 07:02:00,,0817.8,4.99,0.00,28.8,27.9,00.0,37.9,30.5,12.0,0000.0,0006.61,0002.21,0001.34
2021-10-24 07:03:00,,0817.8,5.01,0.00,28.8,27.9,00.0,37.9,30.5,11.3,0000.0,0005.56,0002.10,0001.28
2021-10-24 07:04:00,,0817.8,5.00,0.00,28.8,27.9,00.0,37.9,30.5,11.3,0000.0,0004.48,0001.99,0001.22
2021-10-24 07:05:00,,0817.9,4.99,0.00,28.8,27.9,00.0,37.9,30.5,11.3,0000.0,0004.19,0001.86,0001.15
2021-10-24 07:06:00,,0817.9,4.99,0.00,28.8,27.9,00.0,37.9,30.5,11.3,0000.0,0004.02,0001.76,0001.10
2021-10-24 07:07:00,,0817.9,5.01,0.00,28.8,27.9,00.0,37.9,30.5,11.3,0000.0,0003.94,0001.71,0001.06
2021-10-24 07:08:00,,0817.9,5.00,0.00,28.8,27.9,00.0,37.9,30.5,11.3,0000.0,0003.91,0001.66,0001.02
2021-10-24 07:09:00,,0817.9,5.00,0.00,28.8,27.9,00.0,37.9,30.5,11.3,0000.0,0003.54,0001.58,0000.98
2021-10-24 07:10:00,,0817.9,4.99,0.00,28.8,27.9,00.0,37.9,30.5,11.3,0000.0,0003.11,0001.42,0000.93
2021-10-24 07:11:00,,0817.9,5.01,0.00,28.7,27.8,00.0,37.9,30.4,11.3,0000.0,0002.83,0001.31,0000.87
2021-10-24 07:12:00,,0817.9,5.00,0.00,28.7,27.8,00.0,37.9,30.4,11.3,0000.0,0002.68,0001.22,0000.79
2021-10-24 07:13:00,,0817.9,5.00,0.00,28.7,27.8,00.0,37.9,30.4,11.4,0000.0,0002.74,0001.10,0000.71
2021-10-24 07:14:00,,0818.0,5.00,0.00,28.7,27.8,00.0,37.9,30.4,11.4,0000.0,0002.51,0000.98,0000.68
2021-10-24 07:15:00,,0818.0,5.01,0.00,28.7,27.7,00.0,37.9,30.4,11.4,0000.0,0002.41,0000.95,0000.68
2021-10-24 07:16:00,,0818.0,5.00,0.00,28.7,27.7,00.0,37.9,30.4,11.7,0000.0,0002.50,0001.02,0000.71
2021-10-24 07:17:00,,0818.0,4.98,0.00,28.7,27.7,00.0,37.9,30.3,12.6,0000.0,0003.44,0001.47,0000.95
2021-10-24 07:18:00,,0818.0,5.01,0.00,28.7,27.7,00.0,37.9,30.3,12.7,0000.0,0005.14,0002.08,0001.28
2021-10-24 07:19:00,,0818.0,5.00,0.00,28.7,27.7,00.0,37.9,30.4,12.8,0000.0,0006.85,0002.70,0001.64
2021-10-24 07:20:00,,0818.0,5.00,0.00,28.7,27.8,00.0,37.8,30.5,12.8,0000.0,0008.75,0003.26,0002.02
2021-10-24 07:21:00,,0818.0,4.99,0.00,28.7,27.8,00.0,37.8,30.4,12.8,0000.0,0009.74,0003.66,0002.41
2021-10-24 07:22:00,,0818.0,5.00,0.00,28.7,27.8,00.0,37.8,30.5,12.8,0000.0,0011.43,0004.01,0002.80
2021-10-24 07:23:00,,0818.0,5.01,0.00,28.7,27.8,00.0,37.8,30.4,12.8,0000.0,0013.27,0004.37,0003.14
2021-10-24 07:24:00,,0818.0,5.00,0.00,28.7,27.8,00.0,37.8,30.4,12.8,0000.0,0014.18,0004.74,0003.35
2021-10-24 07:25:00,,0818.0,4.99,0.00,28.7,27.8,00.0,37.8,30.4,12.9,0000.0,0015.56,0005.20,0003.56
2021-10-24 07:26:00,,0818.0,5.00,0.00,28.7,27.8,00.0,37.8,30.4,12.9,0000.0,0017.18,0005.59,0003.78
2021-10-24 07:27:00,,0818.1,5.00,0.00,28.7,27.8,00.0,37.8,30.4,12.8,0000.0,0018.14,0005.95,0003.98
2021-10-24 07:28:00,,0818.2,5.00,0.00,28.7,27.8,00.0,37.8,30.4,12.9,0000.0,0019.71,0006.10,0004.07
2021-10-24 07:29:00,,0818.0,4.99,0.00,28.7,27.8,00.0,37.8,30.4,12.9,0000.0,0020.52,0006.10,0004.10
2021-10-24 07:30:00,,0818.0,5.01,0.00,28.7,27.8,00.0,37.8,30.4,12.9,0000.0,0020.28,0006.13,0004.12
2021-10-24 07:31:00,,0818.0,5.01,0.00,28.7,27.8,00.0,37.8,30.4,13.0,0000.0,0020.34,0006.14,0004.15
2021-10-24 07:32:00,,0818.0,4.99,0.00,28.7,27.8,00.0,37.8,30.4,13.1,0000.0,0020.12,0006.11,0004.17
2021-10-24 07:33:00,,0818.0,4.99,0.00,28.7,27.8,00.0,37.8,30.4,13.0,0000.0,0019.51,0006.13,0004.19
2021-10-24 07:34:00,,0818.0,5.00,0.00,28.7,27.8,00.0,37.8,30.4,13.0,0000.0,0019.07,0006.15,0004.21
2021-10-24 07:35:00,,0818.0,5.01,0.00,28.7,27.8,00.0,37.8,30.5,13.1,0000.0,0019.80,0006.19,0004.25
2021-10-24 07:36:00,,0818.0,5.00,0.00,28.7,27.8,00.0,37.8,30.5,13.2,0000.0,0020.57,0006.22,0004.31
2021-10-24 07:37:00,,0818.0,5.00,0.00,28.7,27.8,00.0,37.8,30.5,13.1,0000.0,0019.98,0006.30,0004.36
2021-10-24 07:38:00,,0818.0,5.02,0.00,28.7,27.8,00.0,37.8,30.4,13.1,0000.0,0019.91,0006.33,0004.39
2021-10-24 07:39:00,,0818.0,5.01,0.00,28.7,27.8,00.0,37.8,30.4,13.2,0000.0,0020.44,0006.43,0004.44
2021-10-24 07:40:00,,0818.0,4.99,0.00,28.7,27.8,00.0,37.8,30.5,13.2,0000.0,0020.69,0006.59,0004.49
2021-10-24 07:41:00,,0818.0,5.00,0.00,28.7,27.8,00.0,37.8,30.5,13.1,0000.0,0021.67,0006.68,0004.53
2021-10-24 07:42:00,,0818.0,5.00,0.00,28.7,27.8,00.0,37.8,30.5,12.8,0000.0,0021.74,0006.59,0004.49
2021-10-24 07:43:00,,0817.9,4.98,0.00,28.7,27.8,00.0,37.8,30.5,13.3,0000.0,0022.84,0006.67,0004.52
2021-10-24 07:44:00,,0818.0,5.01,0.00,28.7,27.8,00.0,37.8,30.6,13.4,0000.0,0022.97,0006.81,0004.57
2021-10-24 07:45:00,,0818.0,5.01,0.00,28.7,27.9,00.0,37.8,30.5,13.3,0000.0,0022.36,0006.89,0004.63
2021-10-24 07:46:00,,0818.0,5.00,0.00,28.7,27.9,00.0,37.8,30.5,13.4,0000.0,0021.29,0006.95,0004.65
2021-10-24 07:47:00,,0818.0,5.01,0.00,28.7,27.9,00.0,37.8,30.5,13.4,0000.0,0020.29,0006.95,0004.66
2021-10-24 07:48:00,,0818.0,4.99,0.00,28.7,27.8,00.0,37.8,30.5,13.4,0000.0,0020.64,0006.92,0004.68
2021-10-24 07:49:00,,0817.9,4.99,0.00,28.7,27.8,00.0,37.8,30.4,13.5,0000.0,0021.48,0006.95,0004.71
2021-10-24 07:50:00,,0818.0,4.99,0.00,28.7,27.8,00.0,37.8,30.4,13.4,0000.0,0020.66,0006.89,0004.75
2021-10-24 07:51:00,,0818.0,5.00,0.00,28.7,27.8,00.0,37.8,30.5,13.3,0000.0,0019.58,0006.86,0004.77
2021-10-24 07:52:00,,0818.0,5.00,0.00,28.7,27.8,00.0,37.8,30.4,13.2,0000.0,0019.50,0006.83,0004.80
2021-10-24 07:53:00,,0818.0,5.00,0.00,28.7,27.8,00.0,37.8,30.4,13.2,0000.0,0019.47,0007.01,0004.85
2021-10-24 07:54:00,,0818.0,4.99,0.00,28.7,27.8,00.0,37.8,30.4,13.2,0000.0,0019.17,0007.07,0004.87
2021-10-24 07:55:00,,0818.0,5.00,0.00,28.7,27.8,00.0,37.8,30.4,13.1,0000.0,0019.78,0007.01,0004.85
2021-10-24 07:56:00,,0818.0,5.00,0.00,28.7,27.7,00.0,37.8,30.4,13.2,0000.0,0019.97,0007.01,0004.84
2021-10-24 07:57:00,,0818.0,5.00,0.00,28.7,27.7,00.0,37.8,30.4,13.2,0000.0,0020.97,0006.98,0004.84
2021-10-24 07:58:00,,0818.0,5.00,0.00,28.7,27.7,00.0,37.8,30.4,13.2,0000.0,0022.50,0007.03,0004.83
2021-10-24 07:59:00,,0818.1,5.01,0.00,28.6,27.7,00.0,37.8,30.3,13.2,0000.0,0022.33,0007.06,0004.83
